Location: Cisewo
(53.3833°N, 14.9000°E)
Time: 10:26:28
(UTC+00:00)

POLYITAN 1 - Pass Details

Date: 28 September 2021
Orbit: 589 x 611 km, 97.9° (Epoch: 19 October)

Event Time Altitude Azimuth Distance (km) Brightness Sun altitude
Rises 00:23:44 0° 16° (NNE) 2,862 ? -35.2°
Reaches altitude 10° 00:25:57 10° 20° (NNE) 1,951 ? -35.1°
Enters shadow 00:27:12 19° 24° (NNE) 1,456 ? -35.0°
